Location: Ellingshausen
(50.5460°N, 10.4723°E)
Time: 10:22:51
(UTC+00:00)

Lacrosse 5 rocket - Pass Details

Date: 18 January 2026
Orbit: 400 x 481 km, 57.0° (Epoch: 19 February)

Event Time Altitude Azimuth Distance (km) Brightness Sun altitude
Exits shadow 03:52:31 15° 50° (NE) 1,384 3.9 -30.9°
Drops below altitude 10° 03:53:24 10° 57° (ENE) 1,682 4.5 -30.7°
Sets 03:55:45 0° 68° (ENE) 2,564 5.8 -30.3°
